Location: Guayaquil
(2.1667°S, 79.9000°W)
Time: 18:52:09
(UTC-05:00)

Envisat - Visible Passes

Search period start: 28 November 2023 00:00
Search period end: 08 December 2023 00:00
Orbit: 762 x 764 km, 98.3° (Epoch: 28 November)

Date Brightness Start Highest point End Pass type
(mag) Time Alt. Az. Time Alt. Az. Time Alt. Az.
28 Nov 5.8 03:06:15 10° SSE 03:06:15 10° SSE 03:06:16 10° SSE visible
30 Nov 5.6 03:31:02 11° S 03:31:02 11° S 03:31:10 10° S visible
03 Dec 5.7 03:18:07 11° S 03:18:07 11° S 03:18:19 10° S visible
06 Dec 5.8 03:05:14 10° SSE 03:05:14 10° SSE 03:05:17 10° SSE visible
